Home   Weather   Tegucigalpa   Past weeks

Flag for Honduras Past Weather in Tegucigalpa, Honduras — Yesterday and Last 2 Weeks

Now
73 °F

Scattered clouds.


Feels Like: 74 °F
Forecast: 67 / 86 °F
Wind: 5 mph from South

Location: Tegucigalpa Airport

Current Time: Apr 28, 2017 at 8:28:55 am

Latest Report: Apr 28, 2017 at 7:00 am


Visibility: 5 mi

Pressure: 30.04 "Hg (26.60 "Hg at 1054m altitude)

Humidity: 78%

Dew Point: 66 °F

Location of TegucigalpaLocation

Past Weather in Tegucigalpa — Graph

°F

Tegucigalpa Temperature Yesterday

Maximum temperature yesterday: 90 °F (at 3:00 pm)
Minimum temperature yesterday: 66 °F (at 5:00 am)
Average temperature yesterday: 78 °F

High & Low Weather Summary for the Past Weeks

 TemperatureHumidityPressure
High90 °F (Apr 18, 2:00 pm)100% (Apr 15, 7:00 am)30.12 "Hg (Apr 15, 7:00 am)
Low61 °F (Apr 17, 5:00 am)29% (Apr 13, 2:00 pm)29.89 "Hg (Apr 21, 3:00 pm)
Average74 °F67%30.03 "Hg
* Reported Apr 13 7:00 am — Apr 28 7:00 am, Tegucigalpa, Weather by CustomWeather, © 2017

Note: Actual official high and low records may vary slightly from our data, if they occured in-between our weather recording intervals... More about our weather records

Advertising

Tegucigalpa Weather History for the Previous 24 Hours

Scroll right to see more
 ConditionsComfort  
Time TempWeatherWind HumidityBarometerVisibility
7:00 am
Fri, Apr 28
73 °FScattered clouds.5 mph78%30.04 "Hg5 mi
6:00 am72 °FScattered clouds.No wind78%30.01 "Hg5 mi
5:00 am70 °FPassing clouds.No wind83%30.01 "HgN/A
4:00 am70 °FPassing clouds.No wind83%29.98 "HgN/A
3:00 am72 °FPassing clouds.7 mph83%29.98 "HgN/A
2:00 am72 °FPassing clouds.No wind83%30.01 "HgN/A
1:00 am72 °FPassing clouds.No wind83%30.01 "HgN/A
12:00 am72 °FPassing clouds.6 mph83%30.01 "HgN/A
11:00 pm
Thu, Apr 27
72 °FPassing clouds.5 mph78%30.01 "HgN/A
10:00 pm73 °FPassing clouds.12 mph74%30.01 "HgN/A
9:00 pm75 °FPassing clouds.7 mph69%30.01 "HgN/A
8:00 pm77 °FPassing clouds.9 mph61%29.98 "HgN/A
7:00 pm79 °FPassing clouds.12 mph61%29.95 "HgN/A
6:00 pm82 °FBroken clouds.9 mph55%29.92 "HgN/A
5:00 pm86 °FScattered clouds.9 mph46%29.89 "HgN/A
4:00 pm88 °FScattered clouds.12 mph43%29.89 "HgN/A
3:00 pm90 °FScattered clouds.9 mph38%29.92 "HgN/A
2:00 pm88 °FScattered clouds.12 mph40%29.92 "HgN/A
1:00 pm88 °FScattered clouds.14 mph35%29.95 "HgN/A
12:00 pm88 °FPassing clouds.9 mph35%29.98 "HgN/A
11:00 am88 °FPassing clouds.12 mph40%29.98 "HgN/A
10:00 am84 °FPassing clouds.7 mph48%30.01 "HgN/A
9:00 am79 °FPassing clouds.7 mph58%30.04 "Hg5 mi
8:00 am77 °FPassing clouds.No wind65%30.01 "Hg5 mi
Weather by CustomWeather, © 2017

See weather overviewHow to use our weather pages